Terminal Aerodrome Forecast
Issued by NWS

Home | Current Version | Previous Version | Graphics & Text | Print | Product List | Glossary On
Versions: 1 2 3 4 5 6 7 8 9 10 11 12 13 14 15 16 17 18 19 20 21 22 23 24 25 26 27
000
FTUS45 KGGW 111538 AAA
TAFGDV
TAF AMD
KGDV 111538Z 1116/1212 02005KT 1SM -SN OVC006
     FM111800 36006KT P6SM VCSH OVC008
     FM120000 35011KT P6SM OVC015
     FM120900 04009KT P6SM BKN010
      AMD LTD TO CLD VIS AND WIND=

USA.gov is the U.S. government's official web portal to all federal, state and local government web resources and services.